Location: Caltech
(34.1382°N, 118.1253°W)
Time: 14:25:09
(UTC-07:00)

UOSAT-12 - Visible Passes

Search period start: 30 June 2015 00:00
Search period end: 10 July 2015 00:00
Orbit: 599 x 657 km, 64.6° (Epoch: 29 June)

Date Brightness Start Highest point End Pass type
(mag) Time Alt. Az. Time Alt. Az. Time Alt. Az.
30 Jun 10.1 03:35:24 10° N 03:38:23 17° NE 03:41:28 10° E visible
01 Jul 8.8 03:54:34 10° NNW 03:58:49 36° NE 04:03:00 10° ESE visible
02 Jul 7.1 04:14:22 10° NNW 04:18:59 85° ENE 04:23:30 10° SSE visible
03 Jul 9.7 02:55:17 10° N 02:58:40 20° NE 03:02:06 10° E visible
03 Jul 7.5 04:34:42 10° NW 04:38:58 38° WSW 04:43:07 10° S visible
04 Jul 8.2 03:14:39 10° NNW 03:19:02 43° ENE 03:23:21 10° SE visible
04 Jul 8.6 04:55:59 10° WNW 04:58:50 16° WSW 05:01:28 10° SW visible
05 Jul 10.1 01:56:50 10° NNE 01:58:22 12° NE 02:00:07 10° ENE visible
05 Jul 6.9 03:34:33 10° NNW 03:39:10 78° WSW 03:40:53 37° SSE visible
06 Jul 9.2 02:15:15 10° N 02:18:56 24° NE 02:20:58 18° E visible
06 Jul 8.1 03:55:02 10° NW 03:58:09 28° W 03:58:09 28° W visible
07 Jul 7.8 02:34:44 10° NNW 02:38:51 51° NE 02:38:51 51° NE visible
08 Jul 9.8 01:16:23 10° NNE 01:18:41 14° NE 01:19:55 13° ENE visible
08 Jul 8.5 02:54:46 10° NW 02:57:08 29° NW 02:57:08 29° NW visible
09 Jul 9.0 01:35:14 10° N 01:38:25 27° NE 01:38:25 27° NE visible
09 Jul 9.6 03:15:26 10° NW 03:15:40 11° WNW 03:15:40 11° WNW visible
